Tracking 29892 objects as of 21-Nov-2024
HD Live streaming from Space Station
objects crossing your sky now

STARLINK-30528

Track STARLINK-30528 now!
10-day predictions
STARLINK-30528 is classified as:


NORAD ID: 57967
Int'l Code: 2023-151D
Perigee: 565.1 km
Apogee: 567.2 km
Inclination: 43.0 °
Period: 95.8 minutes
Semi major axis: 6937 km
RCS: Unknown
Launch date: September 30, 2023
Source: United States (US)
Launch site: AIR FORCE EASTERN TEST RANGE (AFETR)
Your satellite tracking list
Your tracking list is empty




NASA's NSSDC Master Catalog

Two Line Element Set (TLE):
1 57967U 23151D   24325.68360250 -.00000347  00000-0 -10619-4 0  9999
2 57967  43.0030  34.1690 0001548 261.1860  98.8807 15.02550974 64436
Source of the keplerian elements: AFSPC